EW4504 Weather Reports


time (UTC)temp
C
wind
direction
speed
KPH
gust
KPH
rain 1hr
cm
rain 24hr
cm
rain mn
cm
humidity
%
barometer
mb
20260831182033 31 0 0.0 11.3 0.00 0.00 0.00 56 1020.7
20260831181553 32 121 3.2 11.3 0.00 0.00 0.00 57 1020.7
20260831181030 32 116 1.6 11.3 0.00 0.00 0.00 56 1020.7
20260831180529 32 55 1.6 11.3 0.00 0.00 0.00 56 1020.8
20260831180057 32 321 3.2 11.3 0.00 0.00 0.00 54 1020.9
20260831175531 32 158 1.6 11.3 0.00 0.00 0.00 56 1020.9
20260831175033 32 43 4.8 11.3 0.00 0.00 0.00 56 1020.9
20260831174558 32 70 1.6 12.9 0.00 0.00 0.00 55 1020.9
20260831174031 32 337 4.8 12.9 0.00 0.00 0.00 56 1021.0
20260831173530 32 0 1.6 12.9 0.00 0.00 0.00 58 1021.0
20260831173051 31 328 4.8 9.7 0.00 0.00 0.00 59 1020.9
20260831172529 31 297 3.2 9.7 0.00 0.00 0.00 60 1021.0
20260831172032 31 55 4.8 14.5 0.00 0.00 0.00 58 1021.1
20260831171555 31 14 3.2 14.5 0.00 0.00 0.00 59 1021.2
20260831171033 31 31 3.2 11.3 0.00 0.00 0.00 61 1021.1
20260831170532 31 219 3.2 14.5 0.00 0.00 0.00 61 1021.4
20260831170107 31 225 4.8 14.5 0.00 0.00 0.00 59 1021.3
20260831165532 31 0 3.2 12.9 0.00 0.00 0.00 60 1021.4
20260831165031 31 48 3.2 11.3 0.00 0.00 0.00 61 1021.5
20260831164602 31 128 4.8 11.3 0.00 0.00 0.00 61 1021.5
20260831164032 31 19 1.6 6.4 0.00 0.00 0.00 64 1021.6
20260831163531 30 0 1.6 6.4 0.00 0.00 0.00 65 1021.6
20260831163047 30 17 3.2 11.3 0.00 0.00 0.00 66 1021.8
20260831162530 30 150 3.2 11.3 0.00 0.00 0.00 68 1021.7
20260831162031 30 109 1.6 8.0 0.00 0.00 0.00 69 1021.8
20260831161556 29 0 3.2 8.0 0.00 0.00 0.00 69 1021.9
20260831161029 29 96 3.2 8.0 0.00 0.00 0.00 70 1021.9
20260831160530 29 35 1.6 8.0 0.00 0.00 0.00 71 1021.9
20260831160053 28 143 3.2 6.4 0.00 0.00 0.00 73 1022.0
20260831155531 28 115 1.6 6.4 0.00 0.00 0.00 73 1021.9
20260831155034 28 112 1.6 6.4 0.00 0.00 0.00 72 1022.0
20260831154620 28 104 3.2 6.4 0.00 0.00 0.00 75 1022.0
20260831154031 28 0 0.0 4.8 0.00 0.00 0.00 75 1021.9
20260831153533 28 0 1.6 4.8 0.00 0.00 0.00 74 1021.9
20260831153050 28 289 0.0 4.8 0.00 0.00 0.00 75 1022.1
20260831152533 28 0 0.0 3.2 0.00 0.00 0.00 75 1022.0
20260831152027 28 0 1.6 4.8 0.00 0.00 0.00 75 1022.0
20260831151547 28 0 0.0 8.0 0.00 0.00 0.00 76 1022.0
20260831151028 28 290 0.0 8.0 0.00 0.00 0.00 77 1022.0
20260831150530 28 292 3.2 8.0 0.00 0.00 0.00 77 1021.9
20260831150042 27 308 1.6 8.0 0.00 0.00 0.00 79 1021.9
20260831145530 27 344 1.6 8.0 0.00 0.00 0.00 79 1021.9
20260831145027 27 302 0.0 6.4 0.00 0.00 0.00 80 1021.9
20260831144553 27 205 0.0 9.7 0.00 0.00 0.00 80 1021.9
20260831144030 27 289 0.0 9.7 0.00 0.00 0.00 80 1021.9
20260831143532 27 299 1.6 6.4 0.00 0.00 0.00 81 1022.0
20260831143053 26 0 0.0 4.8 0.00 0.00 0.00 81 1022.0
20260831142530 26 300 0.0 6.4 0.00 0.00 0.00 81 1022.1
20260831142031 26 298 1.6 11.3 0.00 0.00 0.00 82 1022.1
20260831141544 26 296 3.2 11.3 0.00 0.00 0.00 82 1022.1
20260831141029 26 240 3.2 9.7 0.00 0.00 0.00 83 1022.1
20260831140528 26 223 4.8 9.7 0.00 0.00 0.00 83 1022.1
20260831140043 26 302 3.2 6.4 0.00 0.00 0.00 84 1021.9
20260831135530 25 185 1.6 6.4 0.00 0.00 0.00 84 1021.9
20260831135033 25 182 0.0 3.2 0.00 0.00 0.00 85 1022.0
20260831134543 25 0 0.0 4.8 0.00 0.00 0.00 85 1022.0
20260831134029 25 0 0.0 4.8 0.00 0.00 0.00 85 1021.9
20260831133529 25 0 0.0 4.8 0.00 0.00 0.00 86 1021.9
20260831133046 25 124 0.0 4.8 0.00 0.00 0.00 87 1021.9
20260831132529 25 0 1.6 6.4 0.00 0.00 0.00 87 1021.9
20260831132030 25 0 1.6 6.4 0.00 0.00 0.00 88 1022.0
20260831131551 24 46 1.6 6.4 0.00 0.00 0.00 89 1022.0
20260831131027 23 60 1.6 6.4 0.00 0.00 0.00 89 1022.1
20260831130530 23 49 1.6 6.4 0.00 0.00 0.00 89 1022.1
20260831130055 23 65 3.2 6.4 0.00 0.00 0.00 90 1022.0
20260831125533 23 69 1.6 6.4 0.00 0.00 0.00 91 1022.1
20260831125029 23 78 3.2 6.4 0.00 0.00 0.00 91 1022.1
20260831124549 22 87 0.0 4.8 0.00 0.00 0.00 92 1022.0
20260831124029 22 93 0.0 4.8 0.00 0.00 0.00 92 1022.0
20260831123532 22 0 1.6 4.8 0.00 0.00 0.00 92 1021.8
20260831123050 22 0 0.0 4.8 0.00 0.00 0.00 93 1021.9
20260831122528 22 94 0.0 3.2 0.00 0.00 0.00 93 1021.8
20260831122028 22 0 0.0 3.2 0.00 0.00 0.00 93 1021.8
20260831121552 22 92 0.0 0.0 0.00 0.00 0.00 93 1021.7
20260831121030 22 0 0.0 0.0 0.00 0.00 0.00 93 1021.7
20260831120535 22 0 0.0 0.0 0.00 0.00 0.00 92 1021.6
20260831120056 21 0 0.0 0.0 0.00 0.00 0.00 92 1021.6
20260831115536 21 0 0.0 0.0 0.00 0.00 0.00 92 1021.6
20260831115029 21 0 0.0 0.0 0.00 0.00 0.00 92 1021.5
20260831114558 21 0 0.0 0.0 0.00 0.00 0.00 92 1021.4
20260831114030 21 0 0.0 0.0 0.00 0.00 0.00 92 1021.4
20260831113532 21 0 0.0 0.0 0.00 0.00 0.00 92 1021.3
20260831113116 21 0 0.0 0.0 0.00 0.00 0.00 92 1021.4
20260831112533 21 0 0.0 0.0 0.00 0.00 0.00 92 1021.3
20260831112031 21 0 0.0 0.0 0.00 0.00 0.00 91 1021.3
20260831111551 21 0 0.0 0.0 0.00 0.00 0.00 91 1021.3
20260831111030 21 0 0.0 0.0 0.00 0.00 0.00 91 1021.3
20260831110530 22 0 0.0 0.0 0.00 0.00 0.00 92 1021.1
20260831110048 22 0 0.0 0.0 0.00 0.00 0.00 92 1021.1
20260831105531 22 0 0.0 0.0 0.00 0.00 0.00 92 1021.0
20260831105029 22 0 0.0 0.0 0.00 0.00 0.00 92 1020.9
20260831104548 22 0 0.0 0.0 0.00 0.00 0.00 91 1020.6
20260831104034 22 0 0.0 0.0 0.00 0.00 0.00 91 1020.6
20260831103533 22 0 0.0 0.0 0.00 0.00 0.00 91 1020.6
20260831103049 22 0 0.0 0.0 0.00 0.00 0.00 91 1020.6
20260831102530 22 0 0.0 0.0 0.00 0.00 0.00 91 1020.6
20260831102031 22 0 0.0 0.0 0.00 0.00 0.00 91 1020.5
20260831101546 22 0 0.0 0.0 0.00 0.00 0.00 91 1020.4
20260831101032 22 0 0.0 0.0 0.00 0.00 0.00 91 1020.4
20260831100530 22 0 0.0 0.0 0.00 0.00 0.00 91 1020.4
20260831100050 22 0 0.0 0.0 0.00 0.00 0.00 91 1020.4
20260831095532 22 0 0.0 0.0 0.00 0.00 0.00 91 1020.4
20260831095030 22 0 0.0 0.0 0.00 0.00 0.00 91 1020.3
20260831094559 22 0 0.0 0.0 0.00 0.00 0.00 91 1020.3
20260831094030 22 0 0.0 0.0 0.00 0.00 0.00 91 1020.2
20260831093533 22 0 0.0 0.0 0.00 0.00 0.00 90 1020.3
20260831093054 22 0 0.0 0.0 0.00 0.00 0.00 91 1020.3
20260831092530 22 0 0.0 0.0 0.00 0.00 0.00 91 1020.3
20260831092031 22 0 0.0 0.0 0.00 0.00 0.00 90 1020.3
20260831091550 22 0 0.0 0.0 0.00 0.00 0.00 90 1020.3
20260831091030 22 0 0.0 0.0 0.00 0.00 0.00 91 1020.4
20260831090532 22 0 0.0 0.0 0.00 0.00 0.00 90 1020.4
20260831090048 22 0 0.0 0.0 0.00 0.00 0.00 90 1020.3
20260831085532 22 0 0.0 0.0 0.00 0.00 0.00 90 1020.3
20260831085030 22 0 0.0 0.0 0.00 0.00 0.00 90 1020.2
20260831084543 22 0 0.0 0.0 0.00 0.00 0.00 90 1020.3
20260831084028 22 0 0.0 0.0 0.00 0.00 0.00 90 1020.2
20260831083528 22 0 0.0 0.0 0.00 0.00 0.00 90 1020.3
20260831083044 22 0 0.0 0.0 0.00 0.00 0.00 90 1020.2
20260831082532 22 0 0.0 0.0 0.00 0.00 0.00 90 1020.1
20260831082028 22 0 0.0 0.0 0.00 0.00 0.00 89 1020.0
20260831081557 22 0 0.0 0.0 0.00 0.00 0.00 89 1020.0
20260831081031 22 0 0.0 0.0 0.00 0.00 0.00 89 1020.1
20260831080533 22 0 0.0 0.0 0.00 0.00 0.00 89 1020.0
20260831080046 22 0 0.0 0.0 0.00 0.00 0.00 89 1020.0
20260831075532 22 0 0.0 0.0 0.00 0.00 0.00 89 1020.0
20260831075029 22 0 0.0 0.0 0.00 0.00 0.00 89 1019.9
20260831074547 22 0 0.0 0.0 0.00 0.00 0.00 89 1019.9
20260831074031 22 0 0.0 0.0 0.00 0.00 0.00 89 1019.9
20260831073532 22 0 0.0 0.0 0.00 0.00 0.00 89 1019.9
20260831073043 22 0 0.0 0.0 0.00 0.00 0.00 88 1020.0
20260831072533 22 0 0.0 0.0 0.00 0.00 0.00 88 1020.0
20260831072032 22 0 0.0 0.0 0.00 0.00 0.00 88 1020.0
20260831071556 23 0 0.0 0.0 0.00 0.00 0.00 88 1020.0
20260831071030 23 0 0.0 0.0 0.00 0.00 0.00 88 1019.8
20260831070530 23 0 0.0 4.8 0.00 0.00 0.00 88 1019.8
20260831070048 23 0 0.0 4.8 0.00 0.00 0.00 88 1019.7
20260831065532 23 0 0.0 4.8 0.00 0.00 0.00 88 1019.8
20260831065032 23 0 0.0 3.2 0.00 0.00 0.00 88 1019.8
20260831064548 23 107 0.0 3.2 0.00 0.00 0.00 87 1019.8
20260831064033 23 0 0.0 3.2 0.00 0.00 0.00 87 1019.8
20260831063528 23 0 0.0 3.2 0.00 0.00 0.00 87 1019.8
20260831063042 23 107 0.0 3.2 0.00 0.00 0.00 87 1019.8
20260831062609 23 0 0.0 3.2 0.00 0.00 0.00 87 1019.9
20260831062033 23 107 0.0 3.2 0.00 0.00 0.00 87 1019.9
20260831061603 23 0 0.0 0.0 0.00 0.00 0.00 87 1020.0
20260831061032 23 0 0.0 0.0 0.00 0.00 0.00 86 1019.9
20260831060531 23 0 0.0 0.0 0.00 0.00 0.00 86 1019.9
20260831060051 23 0 0.0 0.0 0.00 0.00 0.00 86 1019.9
20260831055535 23 0 0.0 0.0 0.00 0.00 0.00 86 1019.9
20260831055030 23 0 0.0 0.0 0.00 0.00 0.00 86 1020.0
20260831054544 23 0 0.0 0.0 0.00 0.00 0.00 86 1020.1
20260831054035 23 0 0.0 0.0 0.00 0.00 0.00 86 1020.1
20260831053529 23 0 0.0 0.0 0.00 0.00 0.00 85 1020.1
20260831053042 23 0 0.0 0.0 0.00 0.00 0.00 86 1020.1
20260831052534 23 0 0.0 0.0 0.00 0.00 0.00 85 1020.1
20260831052034 23 0 0.0 0.0 0.00 0.00 0.00 85 1020.1
20260831051559 23 0 0.0 0.0 0.00 0.00 0.00 85 1020.1
20260831051032 23 0 0.0 0.0 0.00 0.00 0.00 85 1020.1
20260831050531 23 0 0.0 0.0 0.00 0.00 0.00 84 1020.2
20260831050048 23 0 0.0 0.0 0.00 0.00 0.00 84 1020.2
20260831045531 24 0 0.0 0.0 0.00 0.00 0.00 84 1020.2
20260831045030 24 0 0.0 0.0 0.00 0.00 0.00 84 1020.2
20260831044546 24 0 0.0 1.6 0.00 0.00 0.00 83 1020.1
20260831044031 24 0 0.0 3.2 0.00 0.00 0.00 83 1020.1
20260831043528 24 0 0.0 3.2 0.00 0.00 0.00 83 1020.1
20260831043046 24 107 0.0 0.0 0.00 0.00 0.00 83 1020.1
20260831042531 24 0 0.0 0.0 0.00 0.00 0.00 83 1020.1
20260831042031 24 0 0.0 0.0 0.00 0.00 0.00 83 1020.1
20260831041555 24 0 0.0 0.0 0.00 0.00 0.00 82 1020.2
20260831041031 24 0 0.0 0.0 0.00 0.00 0.00 82 1020.3
20260831040533 24 0 0.0 0.0 0.00 0.00 0.00 82 1020.2
20260831040046 24 0 0.0 0.0 0.00 0.00 0.00 81 1020.2
20260831035536 24 0 0.0 0.0 0.00 0.00 0.00 81 1020.3
20260831035029 25 0 0.0 0.0 0.00 0.00 0.00 81 1020.2
20260831034548 25 0 0.0 0.0 0.00 0.00 0.00 81 1020.2
20260831034030 25 0 0.0 0.0 0.00 0.00 0.00 81 1020.2
20260831033533 25 0 0.0 0.0 0.00 0.00 0.00 80 1020.2
20260831033058 25 0 0.0 0.0 0.00 0.00 0.00 80 1020.3
20260831032529 25 0 0.0 4.8 0.00 0.00 0.00 80 1020.2
20260831032032 25 0 0.0 4.8 0.00 0.00 0.00 80 1020.2
20260831031551 25 0 0.0 3.2 0.00 0.00 0.00 80 1020.2
20260831031032 25 0 0.0 0.0 0.00 0.00 0.00 80 1020.3
20260831030530 25 0 0.0 0.0 0.00 0.00 0.00 80 1020.5
20260831030048 25 0 0.0 0.0 0.00 0.00 0.00 80 1020.4
20260831025530 25 0 0.0 0.0 0.00 0.00 0.00 79 1020.4
20260831025030 25 0 0.0 0.0 0.00 0.00 0.00 79 1020.4
20260831024543 25 0 0.0 0.0 0.00 0.00 0.00 79 1020.4
20260831024031 25 0 0.0 0.0 0.00 0.00 0.00 79 1020.4
20260831023531 25 0 0.0 0.0 0.00 0.00 0.00 79 1020.4
20260831023055 25 0 0.0 0.0 0.00 0.00 0.00 79 1020.4
20260831022529 25 0 0.0 0.0 0.00 0.00 0.00 78 1020.4
20260831022031 25 0 0.0 0.0 0.00 0.00 0.00 78 1020.4
20260831021551 25 0 0.0 0.0 0.00 0.00 0.00 78 1020.4
20260831021031 25 0 0.0 0.0 0.00 0.00 0.00 78 1020.4
20260831020533 25 0 0.0 0.0 0.00 0.00 0.00 78 1020.3
20260831020053 26 0 0.0 0.0 0.00 0.00 0.00 78 1020.2
20260831015530 26 0 0.0 0.0 0.00 0.00 0.00 77 1020.1
20260831015031 26 0 0.0 0.0 0.00 0.00 0.00 77 1020.1
20260831014543 26 0 0.0 0.0 0.00 0.00 0.00 77 1020.0
20260831014032 26 0 0.0 0.0 0.00 0.00 0.00 76 1019.9
20260831013529 26 0 0.0 0.0 0.00 0.00 0.00 76 1019.9
20260831013106 26 0 0.0 1.6 0.00 0.00 0.00 75 1019.9
20260831012534 26 0 0.0 1.6 0.00 0.00 0.00 75 1019.9
20260831012032 26 0 0.0 1.6 0.00 0.00 0.00 75 1019.9
20260831011549 26 0 0.0 1.6 0.00 0.00 0.00 74 1019.9
20260831011031 27 0 0.0 1.6 0.00 0.00 0.00 74 1019.7
20260831010531 27 0 0.0 1.6 0.00 0.00 0.00 73 1019.5
20260831010052 27 0 0.0 1.6 0.00 0.00 0.00 73 1019.5
20260831005531 27 0 0.0 0.0 0.00 0.00 0.00 72 1019.5
20260831005032 27 0 0.0 0.0 0.00 0.00 0.00 71 1019.5
20260831004556 27 0 0.0 0.0 0.00 0.00 0.00 70 1019.3
20260831004032 27 0 0.0 0.0 0.00 0.00 0.00 70 1019.4
20260831003534 28 0 0.0 0.0 0.00 0.00 0.00 69 1019.4
20260831003104 28 0 0.0 0.0 0.00 0.00 0.00 68 1019.3
20260831002530 28 0 0.0 0.0 0.00 0.00 0.00 68 1019.3
20260831002030 28 0 0.0 0.0 0.00 0.00 0.00 67 1019.3
20260831001552 28 0 0.0 0.0 0.00 0.00 0.00 66 1019.2
20260831001032 29 0 0.0 0.0 0.00 0.00 0.00 66 1019.2
20260831000530 29 0 0.0 0.0 0.00 0.00 0.00 65 1019.3
20260831000047 29 0 0.0 1.6 0.00 0.00 0.00 65 1019.2
20260830235530 30 0 0.0 3.2 0.00 0.00 0.00 64 1019.3
20260830235030 30 0 0.0 3.2 0.00 0.00 0.00 64 1019.3
20260830234552 30 0 0.0 3.2 0.00 0.00 0.00 63 1019.3
20260830234031 30 0 0.0 3.2 0.00 0.00 0.00 62 1019.2
20260830233531 30 0 0.0 3.2 0.00 0.00 0.00 62 1019.3
20260830233100 30 0 0.0 4.8 0.00 0.00 0.00 62 1019.2
20260830232534 30 108 1.6 4.8 0.00 0.00 0.00 61 1019.2
20260830232031 30 0 0.0 4.8 0.00 0.00 0.00 61 1019.2
20260830231544 30 0 0.0 4.8 0.00 0.00 0.00 61 1019.1
20260830231032 31 115 0.0 6.4 0.00 0.00 0.00 61 1019.0
20260830230531 31 0 1.6 6.4 0.00 0.00 0.00 60 1019.0
20260830230042 31 0 0.0 4.8 0.00 0.00 0.00 60 1019.0
20260830225531 31 105 0.0 9.7 0.00 0.00 0.00 59 1019.0
20260830225034 31 0 3.2 14.5 0.00 0.00 0.00 59 1019.2
20260830224548 31 105 4.8 14.5 0.00 0.00 0.00 58 1019.2
20260830224028 31 147 3.2 11.3 0.00 0.00 0.00 58 1019.0
20260830223531 31 111 4.8 14.5 0.00 0.00 0.00 58 1019.1
20260830223107 31 55 8.0 14.5 0.00 0.00 0.00 59 1019.0
20260830222532 31 114 4.8 14.5 0.00 0.00 0.00 58 1018.9
20260830222030 31 0 3.2 12.9 0.00 0.00 0.00 59 1019.1
20260830221549 31 123 1.6 6.4 0.00 0.00 0.00 58 1019.0
20260830221029 31 134 1.6 8.0 0.00 0.00 0.00 58 1018.9
20260830220531 31 134 0.0 9.7 0.00 0.00 0.00 58 1019.0
20260830220044 31 88 4.8 11.3 0.00 0.00 0.00 58 1019.0
20260830215531 31 82 1.6 11.3 0.00 0.00 0.00 58 1019.0
20260830215031 31 67 0.0 9.7 0.00 0.00 0.00 60 1019.0
20260830214604 31 126 0.0 9.7 0.00 0.00 0.00 59 1019.1
20260830214031 31 87 3.2 11.3 0.00 0.00 0.00 58 1019.3
20260830213528 31 0 3.2 11.3 0.00 0.00 0.00 58 1019.2
20260830213045 31 23 3.2 6.4 0.00 0.00 0.00 58 1019.1
20260830212531 31 0 1.6 9.7 0.00 0.00 0.00 58 1019.2
20260830212031 31 80 1.6 12.9 0.00 0.00 0.00 57 1019.1
20260830211543 31 82 4.8 12.9 0.00 0.00 0.00 58 1019.2
20260830211032 31 71 6.4 17.7 0.00 0.00 0.00 58 1019.3
20260830210532 31 111 8.0 17.7 0.00 0.00 0.00 57 1019.2
20260830210105 31 109 3.2 9.7 0.00 0.00 0.00 58 1019.3
20260830205532 31 32 0.0 9.7 0.00 0.00 0.00 58 1019.3
20260830205031 31 117 1.6 9.7 0.00 0.00 0.00 57 1019.2
20260830204558 31 113 4.8 16.1 0.00 0.00 0.00 56 1019.4
20260830204031 31 90 4.8 16.1 0.00 0.00 0.00 57 1019.3
20260830203531 31 139 4.8 12.9 0.00 0.00 0.00 57 1019.5
20260830203043 31 113 1.6 9.7 0.00 0.00 0.00 58 1019.4
20260830202532 31 212 3.2 9.7 0.00 0.00 0.00 59 1019.5
20260830202033 31 104 3.2 11.3 0.00 0.00 0.00 60 1019.5
20260830201542 31 37 3.2 16.1 0.00 0.00 0.00 59 1019.5
20260830201034 31 101 3.2 16.1 0.00 0.00 0.00 59 1019.6
20260830200534 31 111 8.0 16.1 0.00 0.00 0.00 58 1019.6
20260830200055 31 136 4.8 12.9 0.00 0.00 0.00 59 1019.7
20260830195531 31 101 4.8 12.9 0.00 0.00 0.00 59 1019.7
20260830195031 31 140 1.6 16.1 0.00 0.00 0.00 61 1019.8
20260830194554 31 52 6.4 16.1 0.00 0.00 0.00 60 1020.0
20260830194031 31 109 3.2 17.7 0.00 0.00 0.00 61 1020.0
20260830193529 31 153 6.4 17.7 0.00 0.00 0.00 61 1020.1
20260830193047 31 0 4.8 14.5 0.00 0.00 0.00 61 1020.2
20260830192532 31 146 3.2 14.5 0.00 0.00 0.00 61 1020.3
20260830192031 31 36 4.8 14.5 0.00 0.00 0.00 61 1020.2
20260830191545 31 0 3.2 12.9 0.00 0.00 0.00 62 1020.4
20260830191030 31 91 3.2 14.5 0.00 0.00 0.00 62 1020.4
20260830190531 31 57 6.4 14.5 0.00 0.00 0.00 62 1020.5
20260830190124 31 51 1.6 9.7 0.00 0.00 0.00 63 1020.6
20260830185532 30 223 3.2 16.1 0.00 0.00 0.00 63 1020.6
20260830185031 30 164 6.4 16.1 0.00 0.00 0.00 63 1020.7
20260830184607 30 71 1.6 14.5 0.00 0.00 0.00 63 1020.8
20260830184029 30 109 8.0 17.7 0.00 0.00 0.00 62 1020.9
20260830183529 31 122 6.4 17.7 0.00 0.00 0.00 64 1020.9
20260830183057 31 117 3.2 11.3 0.00 0.00 0.00 63 1021.0
20260830182531 31 29 3.2 14.5 0.00 0.00 0.00 63 1021.2